GLO1246 SBRB-SBEG

Flight info

Callsign GLO1246
Flight time 1h 37m
Altitude 37000
Route PUNPA DCT MASON UZ62 ILKOD
Aircraft B738/M-SDFGIKLORWXY/LB1

Departure

Time 2026-04-25 03:16
Airport Rio Branco-Plácido de Castro International Airport (SBRB)

Arrival

Time 2026-04-25 04:54
Airport Eduardo Gomes International Airport (SBEG)
Time Latitude Longitude Altitude Speed Heading
2026-04-25 02:49 -9.86708 -67.89678 633 ft 0 kts 327°
2026-04-25 03:07 -9.86725 -67.89666 613 ft 4 kts 328°
2026-04-25 03:07 -9.86746 -67.89657 634 ft 4 kts 20°
2026-04-25 03:07 -9.86765 -67.89670 636 ft 4 kts 52°
2026-04-25 03:08 -9.86778 -67.89692 635 ft 2 kts 57°
2026-04-25 03:08 -9.86779 -67.89693 635 ft 0 kts 57°
2026-04-25 03:11 -9.86773 -67.89683 625 ft 4 kts 57°
2026-04-25 03:11 -9.86760 -67.89651 629 ft 6 kts 74°
2026-04-25 03:11 -9.86734 -67.89604 630 ft 9 kts 56°
2026-04-25 03:12 -9.86717 -67.89565 631 ft 9 kts 79°
2026-04-25 03:12 -9.86727 -67.89506 628 ft 9 kts 103°
2026-04-25 03:12 -9.86741 -67.89445 634 ft 9 kts 103°
2026-04-25 03:12 -9.86753 -67.89386 634 ft 9 kts 101°
2026-04-25 03:13 -9.86766 -67.89327 623 ft 9 kts 103°
2026-04-25 03:13 -9.86782 -67.89251 631 ft 14 kts 96°
2026-04-25 03:13 -9.86747 -67.89146 619 ft 18 kts 57°
2026-04-25 03:13 -9.86667 -67.89022 613 ft 23 kts 58°
2026-04-25 03:14 -9.86582 -67.88889 609 ft 23 kts 57°
2026-04-25 03:14 -9.86498 -67.88757 611 ft 22 kts 57°
2026-04-25 03:14 -9.86424 -67.88651 617 ft 13 kts 41°
2026-04-25 03:14 -9.86375 -67.88630 611 ft 6 kts 27°
2026-04-25 03:15 -9.86382 -67.88595 619 ft 6 kts 160°
2026-04-25 03:15 -9.86403 -67.88609 608 ft 0 kts 237°
2026-04-25 03:15 -9.86421 -67.88637 604 ft 27 kts 237°
2026-04-25 03:16 -9.86684 -67.89049 616 ft 110 kts 237°
2026-04-25 03:16 -9.87226 -67.89892 634 ft 178 kts 236°
2026-04-25 03:16 -9.87953 -67.91011 1391 ft 189 kts 236°
2026-04-25 03:16 -9.88687 -67.92149 2142 ft 208 kts 236°
2026-04-25 03:17 -9.89515 -67.93466 2428 ft 235 kts 237°
2026-04-25 03:17 -9.90314 -67.94982 2775 ft 252 kts 256°
2026-04-25 03:17 -9.90236 -67.96748 3367 ft 256 kts 295°
2026-04-25 03:17 -9.89137 -67.98123 4165 ft 251 kts 332°
2026-04-25 03:18 -9.87494 -67.98579 4985 ft 246 kts
2026-04-25 03:18 -9.85933 -67.97973 5747 ft 243 kts 43°
2026-04-25 03:18 -9.85000 -67.96568 6492 ft 246 kts 75°
2026-04-25 03:18 -9.85035 -67.94846 7177 ft 251 kts 109°
2026-04-25 03:19 -9.85846 -67.93261 7931 ft 255 kts 118°
2026-04-25 03:19 -9.86757 -67.91696 8645 ft 260 kts 118°
2026-04-25 03:19 -9.87691 -67.90108 9385 ft 264 kts 118°
2026-04-25 03:19 -9.88562 -67.88442 9909 ft 276 kts 104°
2026-04-25 03:20 -9.88560 -67.86485 10211 ft 290 kts 72°
2026-04-25 03:20 -9.87479 -67.84690 10384 ft 312 kts 46°
2026-04-25 03:20 -9.85914 -67.83102 10845 ft 322 kts 45°
2026-04-25 03:20 -9.84314 -67.81480 11483 ft 326 kts 46°
2026-04-25 03:21 -9.82718 -67.79836 12194 ft 329 kts 46°
2026-04-25 03:21 -9.81117 -67.78155 12881 ft 332 kts 47°
2026-04-25 03:21 -9.79536 -67.76472 13547 ft 335 kts 47°
2026-04-25 03:21 -9.77929 -67.74742 14152 ft 339 kts 47°
2026-04-25 03:22 -9.76305 -67.72983 14748 ft 342 kts 47°
2026-04-25 03:22 -9.74676 -67.71212 15315 ft 346 kts 47°
2026-04-25 03:22 -9.73027 -67.69415 15898 ft 349 kts 47°
2026-04-25 03:22 -9.71366 -67.67602 16477 ft 353 kts 47°
2026-04-25 03:23 -9.69687 -67.65769 17046 ft 356 kts 47°
2026-04-25 03:23 -9.67992 -67.63919 17610 ft 360 kts 47°
2026-04-25 03:23 -9.66282 -67.62052 18170 ft 363 kts 47°
2026-04-25 03:23 -9.64553 -67.60164 18662 ft 367 kts 47°
2026-04-25 03:24 -9.62810 -67.58262 19162 ft 369 kts 47°
2026-04-25 03:24 -9.61054 -67.56345 19661 ft 372 kts 47°
2026-04-25 03:24 -9.59290 -67.54421 20150 ft 375 kts 47°
2026-04-25 03:24 -9.57508 -67.52476 20620 ft 378 kts 47°
2026-04-25 03:25 -9.55733 -67.50540 21090 ft 381 kts 47°
2026-04-25 03:25 -9.53923 -67.48566 21568 ft 383 kts 47°
2026-04-25 03:25 -9.52097 -67.46574 22039 ft 386 kts 48°
2026-04-25 03:25 -9.50265 -67.44577 22509 ft 389 kts 48°
2026-04-25 03:26 -9.48413 -67.42557 22946 ft 392 kts 48°
2026-04-25 03:26 -9.46550 -67.40526 23388 ft 395 kts 48°
2026-04-25 03:26 -9.44674 -67.38482 23778 ft 397 kts 48°
2026-04-25 03:26 -9.42787 -67.36426 24150 ft 399 kts 48°
2026-04-25 03:27 -9.40898 -67.34353 24514 ft 401 kts 49°
2026-04-25 03:27 -9.39035 -67.32234 24883 ft 403 kts 50°
2026-04-25 03:27 -9.37183 -67.30090 25247 ft 405 kts 50°
2026-04-25 03:27 -9.35328 -67.27932 25603 ft 407 kts 50°
2026-04-25 03:28 -9.33456 -67.25755 25960 ft 410 kts 50°
2026-04-25 03:28 -9.31578 -67.23576 26310 ft 412 kts 50°
2026-04-25 03:28 -9.29688 -67.21387 26662 ft 414 kts 50°
2026-04-25 03:28 -9.27786 -67.19190 26990 ft 416 kts 50°
2026-04-25 03:29 -9.25896 -67.17007 27319 ft 418 kts 50°
2026-04-25 03:29 -9.23948 -67.14761 27650 ft 420 kts 50°
2026-04-25 03:29 -9.22035 -67.12556 27968 ft 423 kts 50°
2026-04-25 03:29 -9.20089 -67.10314 28284 ft 425 kts 50°
2026-04-25 03:30 -9.18131 -67.08058 28596 ft 427 kts 50°
2026-04-25 03:30 -9.16164 -67.05793 28904 ft 429 kts 50°
2026-04-25 03:30 -9.14193 -67.03523 29203 ft 431 kts 50°
2026-04-25 03:30 -9.12210 -67.01239 29496 ft 433 kts 50°
2026-04-25 03:31 -9.10218 -66.98947 29788 ft 435 kts 50°
2026-04-25 03:31 -9.08210 -66.96635 30067 ft 437 kts 50°
2026-04-25 03:31 -9.06229 -66.94355 30301 ft 439 kts 50°
2026-04-25 03:31 -9.04183 -66.92002 30575 ft 439 kts 50°
2026-04-25 03:32 -9.02190 -66.89709 30830 ft 440 kts 50°
2026-04-25 03:32 -9.00154 -66.87366 31007 ft 444 kts 50°
2026-04-25 03:32 -8.98112 -66.85018 31180 ft 447 kts 50°
2026-04-25 03:32 -8.96054 -66.82652 31411 ft 448 kts 50°
2026-04-25 03:33 -8.93991 -66.80281 31654 ft 449 kts 50°
2026-04-25 03:33 -8.91926 -66.77907 31876 ft 450 kts 50°
2026-04-25 03:33 -8.89850 -66.75522 32077 ft 452 kts 50°
2026-04-25 03:33 -8.87764 -66.73126 32273 ft 454 kts 50°
2026-04-25 03:34 -8.85674 -66.70725 32475 ft 455 kts 50°
2026-04-25 03:34 -8.83580 -66.68320 32722 ft 455 kts 50°
2026-04-25 03:34 -8.81519 -66.65953 33034 ft 454 kts 50°
2026-04-25 03:34 -8.79435 -66.63562 33367 ft 453 kts 50°
2026-04-25 03:35 -8.77353 -66.61172 33644 ft 452 kts 50°
2026-04-25 03:35 -8.75273 -66.58785 33912 ft 452 kts 50°
2026-04-25 03:35 -8.73191 -66.56396 34164 ft 452 kts 50°
2026-04-25 03:35 -8.71112 -66.54011 34417 ft 451 kts 50°
2026-04-25 03:36 -8.69061 -66.51659 34645 ft 450 kts 50°
2026-04-25 03:36 -8.66988 -66.49281 34888 ft 450 kts 50°
2026-04-25 03:36 -8.64921 -66.46912 35137 ft 449 kts 50°
2026-04-25 03:36 -8.62855 -66.44543 35355 ft 449 kts 50°
2026-04-25 03:37 -8.60786 -66.42171 35561 ft 449 kts 50°
2026-04-25 03:37 -8.58718 -66.39801 35779 ft 449 kts 50°
2026-04-25 03:37 -8.56651 -66.37433 36005 ft 448 kts 50°
2026-04-25 03:37 -8.54590 -66.35072 36225 ft 448 kts 50°
2026-04-25 03:38 -8.52528 -66.32710 36411 ft 448 kts 50°
2026-04-25 03:38 -8.50468 -66.30351 36630 ft 447 kts 50°
2026-04-25 03:38 -8.48412 -66.27997 36842 ft 447 kts 50°
2026-04-25 03:38 -8.46376 -66.25666 36975 ft 448 kts 50°
2026-04-25 03:39 -8.42226 -66.20916 36969 ft 452 kts 50°
2026-04-25 03:39 -8.38081 -66.16174 36968 ft 449 kts 50°
2026-04-25 03:40 -8.33962 -66.11464 36964 ft 446 kts 50°
2026-04-25 03:40 -8.29854 -66.06768 36970 ft 444 kts 50°
2026-04-25 03:41 -8.25764 -66.02093 36974 ft 443 kts 50°
2026-04-25 03:41 -8.21770 -65.97530 36966 ft 443 kts 50°
2026-04-25 03:42 -8.17692 -65.92872 36980 ft 443 kts 50°
2026-04-25 03:42 -8.13599 -65.88198 36975 ft 445 kts 50°
2026-04-25 03:43 -8.09492 -65.83511 36974 ft 447 kts 50°
2026-04-25 03:43 -8.05354 -65.78790 36974 ft 449 kts 50°
2026-04-25 03:44 -8.01202 -65.74054 36970 ft 451 kts 50°
2026-04-25 03:44 -7.97054 -65.69324 36973 ft 452 kts 50°
2026-04-25 03:45 -7.92907 -65.64597 36967 ft 453 kts 50°
2026-04-25 03:45 -7.88716 -65.59823 36980 ft 454 kts 50°
2026-04-25 03:46 -7.84533 -65.55058 36961 ft 453 kts 50°
2026-04-25 03:46 -7.80367 -65.50313 36962 ft 451 kts 50°
2026-04-25 03:47 -7.76212 -65.45584 36967 ft 449 kts 50°
2026-04-25 03:47 -7.72097 -65.40901 36966 ft 447 kts 50°
2026-04-25 03:48 -7.67973 -65.36208 36967 ft 445 kts 50°
2026-04-25 03:48 -7.63873 -65.31545 36966 ft 444 kts 50°
2026-04-25 03:49 -7.59775 -65.26884 36974 ft 443 kts 50°
2026-04-25 03:49 -7.55718 -65.22272 36964 ft 441 kts 50°
2026-04-25 03:50 -7.51652 -65.17637 36960 ft 440 kts 50°
2026-04-25 03:50 -7.47609 -65.13017 36966 ft 439 kts 50°
2026-04-25 03:51 -7.43570 -65.08402 36963 ft 439 kts 50°
2026-04-25 03:51 -7.39534 -65.03792 36968 ft 439 kts 50°
2026-04-25 03:52 -7.35567 -64.99264 36975 ft 439 kts 50°
2026-04-25 03:52 -7.31524 -64.94650 36969 ft 439 kts 50°
2026-04-25 03:53 -7.27475 -64.90029 36973 ft 440 kts 50°
2026-04-25 03:53 -7.23422 -64.85407 36973 ft 441 kts 50°
2026-04-25 03:54 -7.19355 -64.80770 36968 ft 441 kts 50°
2026-04-25 03:54 -7.15285 -64.76131 36970 ft 442 kts 50°
2026-04-25 03:55 -7.11237 -64.71518 36969 ft 442 kts 50°
2026-04-25 03:55 -7.07161 -64.66876 36968 ft 442 kts 50°
2026-04-25 03:56 -7.03079 -64.62226 36969 ft 443 kts 50°
2026-04-25 03:56 -6.99700 -64.58379 36969 ft 443 kts 50°
2026-04-25 03:57 -6.95622 -64.53737 36963 ft 442 kts 50°
2026-04-25 03:57 -6.91542 -64.49094 36969 ft 442 kts 50°
2026-04-25 03:58 -6.87462 -64.44452 36964 ft 442 kts 50°
2026-04-25 03:58 -6.83387 -64.39818 36972 ft 441 kts 50°
2026-04-25 03:59 -6.79346 -64.35222 36963 ft 441 kts 50°
2026-04-25 03:59 -6.75279 -64.30598 36966 ft 440 kts 50°
2026-04-25 04:00 -6.71221 -64.25986 36969 ft 440 kts 50°
2026-04-25 04:00 -6.67164 -64.21375 36966 ft 439 kts 50°
2026-04-25 04:01 -6.63114 -64.16770 36968 ft 439 kts 50°
2026-04-25 04:01 -6.59070 -64.12172 36965 ft 439 kts 50°
2026-04-25 04:02 -6.55044 -64.07596 36968 ft 439 kts 50°
2026-04-25 04:02 -6.50995 -64.02993 36967 ft 439 kts 50°
2026-04-25 04:03 -6.47016 -63.98473 36979 ft 439 kts 50°
2026-04-25 04:03 -6.42953 -63.93862 36969 ft 440 kts 50°
2026-04-25 04:04 -6.38886 -63.89254 36970 ft 441 kts 50°
2026-04-25 04:04 -6.34813 -63.84638 36981 ft 441 kts 50°
2026-04-25 04:05 -6.30761 -63.80048 36976 ft 442 kts 50°
2026-04-25 04:05 -6.26672 -63.75420 36963 ft 443 kts 50°
2026-04-25 04:06 -6.22576 -63.70784 36966 ft 443 kts 50°
2026-04-25 04:06 -6.18481 -63.66148 36967 ft 443 kts 50°
2026-04-25 04:07 -6.14381 -63.61507 36968 ft 444 kts 50°
2026-04-25 04:07 -6.10285 -63.56871 36967 ft 444 kts 50°
2026-04-25 04:08 -6.06180 -63.52236 36966 ft 444 kts 49°
2026-04-25 04:08 -6.02023 -63.47644 36970 ft 444 kts 49°
2026-04-25 04:09 -5.97898 -63.43111 36962 ft 444 kts 49°
2026-04-25 04:09 -5.93711 -63.38499 36966 ft 443 kts 49°
2026-04-25 04:10 -5.89585 -63.33949 36960 ft 443 kts 49°
2026-04-25 04:10 -5.85408 -63.29341 36962 ft 443 kts 49°
2026-04-25 04:11 -5.79206 -63.22501 36962 ft 443 kts 49°
2026-04-25 04:12 -5.75054 -63.17924 36962 ft 443 kts 49°
2026-04-25 04:12 -5.70937 -63.13311 36973 ft 443 kts 50°
2026-04-25 04:13 -5.66919 -63.08610 36963 ft 443 kts 51°
2026-04-25 04:13 -5.62930 -63.03922 36969 ft 444 kts 51°
2026-04-25 04:14 -5.58990 -62.99313 36964 ft 445 kts 50°
2026-04-25 04:14 -5.54944 -62.94595 36971 ft 446 kts 50°
2026-04-25 04:15 -5.50891 -62.89875 36966 ft 446 kts 50°
2026-04-25 04:15 -5.46827 -62.85144 36964 ft 447 kts 50°
2026-04-25 04:16 -5.42788 -62.80443 36962 ft 447 kts 50°
2026-04-25 04:16 -5.38714 -62.75701 36971 ft 448 kts 50°
2026-04-25 04:17 -5.34641 -62.70962 36966 ft 448 kts 50°
2026-04-25 04:17 -5.30564 -62.66219 36970 ft 448 kts 50°
2026-04-25 04:18 -5.26485 -62.61474 36966 ft 449 kts 50°
2026-04-25 04:18 -5.22432 -62.56762 36964 ft 449 kts 50°
2026-04-25 04:19 -5.18352 -62.52017 36970 ft 448 kts 50°
2026-04-25 04:19 -5.14281 -62.47286 36965 ft 448 kts 50°
2026-04-25 04:20 -5.10205 -62.42549 36960 ft 448 kts 50°
2026-04-25 04:20 -5.06133 -62.37818 36964 ft 447 kts 51°
2026-04-25 04:21 -5.02060 -62.33087 36962 ft 447 kts 51°
2026-04-25 04:21 -4.98005 -62.28377 36956 ft 447 kts 51°
2026-04-25 04:22 -4.93954 -62.23674 36961 ft 447 kts 51°
2026-04-25 04:22 -4.89894 -62.18960 36966 ft 446 kts 51°
2026-04-25 04:23 -4.85828 -62.14241 36959 ft 446 kts 51°
2026-04-25 04:23 -4.81770 -62.09532 36955 ft 446 kts 51°
2026-04-25 04:24 -4.77736 -62.04852 36959 ft 446 kts 51°
2026-04-25 04:24 -4.73679 -62.00146 36960 ft 446 kts 51°
2026-04-25 04:25 -4.69710 -61.95543 36963 ft 445 kts 51°
2026-04-25 04:25 -4.65660 -61.90847 36953 ft 445 kts 51°
2026-04-25 04:26 -4.61616 -61.86158 36946 ft 444 kts 51°
2026-04-25 04:26 -4.57580 -61.81480 36952 ft 443 kts 51°
2026-04-25 04:27 -4.53546 -61.76805 36952 ft 442 kts 51°
2026-04-25 04:27 -4.49545 -61.72169 36828 ft 444 kts 51°
2026-04-25 04:27 -4.47514 -61.69815 36361 ft 446 kts 51°
2026-04-25 04:28 -4.45482 -61.67462 35797 ft 445 kts 51°
2026-04-25 04:28 -4.43455 -61.65114 35218 ft 445 kts 51°
2026-04-25 04:28 -4.41425 -61.62763 34618 ft 446 kts 51°
2026-04-25 04:28 -4.39387 -61.60403 33967 ft 448 kts 51°
2026-04-25 04:29 -4.37344 -61.58037 33249 ft 450 kts 51°
2026-04-25 04:29 -4.35295 -61.55664 32575 ft 451 kts 51°
2026-04-25 04:29 -4.33247 -61.53293 32058 ft 448 kts 50°
2026-04-25 04:29 -4.31219 -61.50946 31584 ft 444 kts 50°
2026-04-25 04:30 -4.29198 -61.48608 31112 ft 441 kts 50°
2026-04-25 04:30 -4.27197 -61.46292 30653 ft 438 kts 50°
2026-04-25 04:30 -4.25207 -61.43989 30176 ft 436 kts 50°
2026-04-25 04:30 -4.23220 -61.41689 29657 ft 434 kts 50°
2026-04-25 04:31 -4.21252 -61.39412 29150 ft 430 kts 50°
2026-04-25 04:31 -4.19304 -61.37158 28658 ft 426 kts 50°
2026-04-25 04:31 -4.17372 -61.34922 28181 ft 422 kts 50°
2026-04-25 04:31 -4.15481 -61.32735 27720 ft 419 kts 50°
2026-04-25 04:32 -4.13579 -61.30535 27258 ft 416 kts 50°
2026-04-25 04:32 -4.11694 -61.28354 26801 ft 412 kts 50°
2026-04-25 04:32 -4.09824 -61.26191 26350 ft 409 kts 50°
2026-04-25 04:32 -4.07964 -61.24040 25897 ft 407 kts 50°
2026-04-25 04:33 -4.06120 -61.21907 25451 ft 404 kts 49°
2026-04-25 04:33 -4.04284 -61.19784 24986 ft 402 kts 49°
2026-04-25 04:33 -4.02456 -61.17671 24539 ft 400 kts 49°
2026-04-25 04:33 -4.00639 -61.15570 24073 ft 399 kts 49°
2026-04-25 04:34 -3.98839 -61.13488 23619 ft 397 kts 49°
2026-04-25 04:34 -3.97033 -61.11401 23107 ft 395 kts 49°
2026-04-25 04:34 -3.95238 -61.09326 22634 ft 392 kts 49°
2026-04-25 04:34 -3.93457 -61.07268 22176 ft 389 kts 49°
2026-04-25 04:35 -3.91688 -61.05223 21728 ft 386 kts 49°
2026-04-25 04:35 -3.89933 -61.03194 21292 ft 383 kts 50°
2026-04-25 04:35 -3.88212 -61.01206 20862 ft 381 kts 50°
2026-04-25 04:35 -3.86559 -60.99295 20450 ft 379 kts 50°
2026-04-25 04:36 -3.84839 -60.97308 20022 ft 376 kts 50°
2026-04-25 04:36 -3.83130 -60.95333 19592 ft 374 kts 50°
2026-04-25 04:36 -3.81420 -60.93357 19154 ft 373 kts 50°
2026-04-25 04:36 -3.79726 -60.91399 18723 ft 372 kts 50°
2026-04-25 04:37 -3.78037 -60.89448 18297 ft 370 kts 50°
2026-04-25 04:37 -3.76351 -60.87500 17822 ft 369 kts 50°
2026-04-25 04:37 -3.74677 -60.85566 17396 ft 366 kts 50°
2026-04-25 04:37 -3.73012 -60.83643 16951 ft 363 kts 50°
2026-04-25 04:38 -3.71357 -60.81735 16536 ft 361 kts 49°
2026-04-25 04:38 -3.69563 -60.80030 16054 ft 362 kts 39°
2026-04-25 04:38 -3.67548 -60.78520 15605 ft 360 kts 37°
2026-04-25 04:38 -3.65510 -60.77058 15184 ft 358 kts 36°
2026-04-25 04:39 -3.63491 -60.75611 14771 ft 356 kts 37°
2026-04-25 04:39 -3.61483 -60.74155 14352 ft 355 kts 37°
2026-04-25 04:39 -3.59494 -60.72696 13930 ft 354 kts 37°
2026-04-25 04:39 -3.57517 -60.71234 13481 ft 352 kts 37°
2026-04-25 04:40 -3.55555 -60.69775 13049 ft 350 kts 37°
2026-04-25 04:40 -3.53605 -60.68322 12630 ft 348 kts 37°
2026-04-25 04:40 -3.51670 -60.66878 12216 ft 345 kts 37°
2026-04-25 04:40 -3.50393 -60.65925 11946 ft 344 kts 37°
2026-04-25 04:41 -3.47861 -60.64034 11415 ft 341 kts 37°
2026-04-25 04:41 -3.45962 -60.62617 11014 ft 339 kts 37°
2026-04-25 04:41 -3.44709 -60.61682 10735 ft 338 kts 37°
2026-04-25 04:41 -3.42208 -60.59814 10406 ft 329 kts 37°
2026-04-25 04:42 -3.41002 -60.58915 10271 ft 324 kts 37°
2026-04-25 04:42 -3.39211 -60.57579 10139 ft 315 kts 37°
2026-04-25 04:42 -3.37481 -60.56288 10002 ft 306 kts 37°
2026-04-25 04:42 -3.35798 -60.55032 9842 ft 293 kts 37°
2026-04-25 04:43 -3.34171 -60.53817 9380 ft 290 kts 37°
2026-04-25 04:43 -3.32553 -60.52608 9027 ft 291 kts 37°
2026-04-25 04:43 -3.30955 -60.51413 8743 ft 289 kts 37°
2026-04-25 04:43 -3.29346 -60.50212 8434 ft 288 kts 37°
2026-04-25 04:44 -3.27744 -60.49017 8132 ft 287 kts 37°
2026-04-25 04:44 -3.26149 -60.47826 7835 ft 285 kts 37°
2026-04-25 04:44 -3.24558 -60.46641 7542 ft 284 kts 37°
2026-04-25 04:44 -3.22974 -60.45462 7248 ft 283 kts 37°
2026-04-25 04:45 -3.21394 -60.44285 6953 ft 282 kts 37°
2026-04-25 04:45 -3.19819 -60.43112 6655 ft 282 kts 37°
2026-04-25 04:45 -3.18250 -60.41943 6336 ft 280 kts 37°
2026-04-25 04:45 -3.16702 -60.40790 6010 ft 273 kts 37°
2026-04-25 04:46 -3.15187 -60.39661 5725 ft 271 kts 37°
2026-04-25 04:46 -3.13681 -60.38540 5437 ft 270 kts 37°
2026-04-25 04:46 -3.12172 -60.37417 5139 ft 269 kts 37°
2026-04-25 04:46 -3.10690 -60.36313 4858 ft 269 kts 37°
2026-04-25 04:47 -3.09193 -60.35197 4552 ft 268 kts 37°
2026-04-25 04:47 -3.07702 -60.34086 4272 ft 267 kts 37°
2026-04-25 04:47 -3.06230 -60.32989 4143 ft 260 kts 37°
2026-04-25 04:47 -3.04828 -60.31893 4010 ft 252 kts 46°
2026-04-25 04:48 -3.03973 -60.30413 3860 ft 245 kts 74°
2026-04-25 04:48 -3.03741 -60.28766 3674 ft 235 kts 88°
2026-04-25 04:48 -3.03749 -60.27162 3483 ft 226 kts 90°
2026-04-25 04:48 -3.03781 -60.25622 3325 ft 215 kts 91°
2026-04-25 04:49 -3.03811 -60.24171 3140 ft 202 kts 90°
2026-04-25 04:49 -3.03821 -60.22818 3016 ft 187 kts 89°
2026-04-25 04:49 -3.03825 -60.21554 2822 ft 175 kts 89°
2026-04-25 04:49 -3.03827 -60.20411 2704 ft 156 kts 89°
2026-04-25 04:50 -3.03829 -60.19361 2550 ft 149 kts 89°
2026-04-25 04:50 -3.03831 -60.18339 2400 ft 148 kts 89°
2026-04-25 04:50 -3.03833 -60.17322 2260 ft 145 kts 89°
2026-04-25 04:50 -3.03835 -60.16324 2174 ft 142 kts 90°
2026-04-25 04:51 -3.03837 -60.15318 2019 ft 146 kts 90°
2026-04-25 04:51 -3.03839 -60.14311 1839 ft 144 kts 90°
2026-04-25 04:51 -3.03841 -60.13311 1667 ft 143 kts 90°
2026-04-25 04:51 -3.03843 -60.12314 1470 ft 144 kts 90°
2026-04-25 04:52 -3.03845 -60.11324 1287 ft 144 kts 90°
2026-04-25 04:52 -3.03848 -60.10320 1098 ft 145 kts 91°
2026-04-25 04:52 -3.03850 -60.09305 917 ft 147 kts 91°
2026-04-25 04:52 -3.03852 -60.08278 718 ft 148 kts 90°
2026-04-25 04:53 -3.03860 -60.07238 526 ft 150 kts 90°
2026-04-25 04:53 -3.03858 -60.06198 328 ft 148 kts 90°
2026-04-25 04:53 -3.03861 -60.05221 267 ft 129 kts 90°
2026-04-25 04:53 -3.03861 -60.04528 269 ft 72 kts 90°
2026-04-25 04:54 -3.03862 -60.04135 268 ft 50 kts 90°
2026-04-25 04:54 -3.03863 -60.03879 267 ft 20 kts 90°
2026-04-25 04:54 -3.03849 -60.03801 267 ft 10 kts 62°
2026-04-25 04:54 -3.03795 -60.03767 268 ft 9 kts 10°
2026-04-25 04:55 -3.03733 -60.03780 268 ft 9 kts 332°
2026-04-25 04:55 -3.03692 -60.03825 268 ft 9 kts 296°
2026-04-25 04:55 -3.03672 -60.03887 268 ft 11 kts 285°
2026-04-25 04:55 -3.03649 -60.03971 267 ft 14 kts 285°
2026-04-25 04:56 -3.03619 -60.04081 267 ft 17 kts 284°
2026-04-25 04:56 -3.03586 -60.04197 267 ft 17 kts 289°
2026-04-25 04:56 -3.03528 -60.04296 267 ft 17 kts 313°
2026-04-25 04:56 -3.03436 -60.04361 267 ft 16 kts 336°
2026-04-25 04:57 -3.03349 -60.04389 267 ft 9 kts 325°
2026-04-25 04:57 -3.03336 -60.04446 267 ft 9 kts 258°
2026-04-25 04:57 -3.03348 -60.04505 267 ft 9 kts 259°
2026-04-25 04:57 -3.03355 -60.04558 267 ft 6 kts 268°
2026-04-25 04:58 -3.03326 -60.04578 267 ft 6 kts 356°
2026-04-25 04:58 -3.03286 -60.04580 267 ft 4 kts 357°
2026-04-25 04:58 -3.03274 -60.04581 267 ft 0 kts 357°